FW5908 Weather Reports


time (UTC)temp
F
wind
direction
speed
knots
gust
knots
rain 1hr
in
rain 24hr
in
rain mn
in
humidity
%
barometer
mb
20260502151557 52 246 0.0 6.1 0.00 0.00 0.00 50 1024.2
20260502150557 51 284 2.6 4.3 0.00 0.00 0.00 53 1024.3
20260502130557 38 78 0.0 0.0 0.00 0.00 0.00 77 1024.3
20260502123557 35 79 0.0 0.0 0.00 0.00 0.00 81 1024.2
20260502122557 34 61 0.0 0.0 0.00 0.00 0.00 81 1024.2
20260502121557 34 61 0.0 0.0 0.00 0.00 0.00 81 1024.1
20260502120557 33 61 0.0 0.0 0.00 0.00 0.00 81 1024.0
20260502115557 33 61 0.0 0.0 0.00 0.00 0.00 81 1024.1
20260502114557 33 61 0.0 0.0 0.00 0.00 0.00 81 1024.0
20260502113557 33 61 0.0 0.0 0.00 0.00 0.00 80 1023.9
20260502112557 33 61 0.0 0.0 0.00 0.00 0.00 79 1023.8
20260502111557 33 61 0.0 0.0 0.00 0.00 0.00 78 1023.7
20260502110557 33 61 0.0 0.0 0.00 0.00 0.00 78 1023.6
20260502105557 34 61 0.0 0.0 0.00 0.00 0.00 77 1023.5
20260502104557 34 61 0.0 0.0 0.00 0.00 0.00 77 1023.6
20260502103557 34 61 0.0 0.0 0.00 0.00 0.00 76 1023.5
20260502102557 35 61 0.0 0.0 0.00 0.00 0.00 74 1023.5
20260502101557 35 61 0.0 0.0 0.00 0.00 0.00 73 1023.4
20260502100557 35 61 0.0 0.0 0.00 0.00 0.00 72 1023.4
20260502090557 36 61 0.0 0.0 0.00 0.00 0.00 71 1023.1
20260502070556 39 61 0.0 0.0 0.00 0.00 0.00 61 1023.4
20260502065556 40 61 0.0 0.0 0.00 0.00 0.00 60 1023.3
20260502064557 40 61 0.0 0.0 0.00 0.00 0.00 58 1023.3
20260502063556 40 61 0.0 0.0 0.00 0.00 0.00 57 1023.4
20260502062557 41 61 0.0 0.0 0.00 0.00 0.00 57 1023.3
20260502061556 41 61 0.0 0.0 0.00 0.00 0.00 57 1023.3
20260502060556 41 61 0.0 0.0 0.00 0.00 0.00 57 1023.2
20260502055556 41 61 0.0 0.0 0.00 0.00 0.00 57 1023.2
20260502054556 41 61 0.0 0.0 0.00 0.00 0.00 57 1023.1
20260502053556 41 61 0.0 0.0 0.00 0.00 0.00 56 1022.9
20260502052556 42 61 0.0 0.0 0.00 0.00 0.00 56 1022.9
20260502051556 42 61 0.0 0.0 0.00 0.00 0.00 56 1022.9
20260502050556 42 61 0.0 0.0 0.00 0.00 0.00 57 1022.8
20260502045556 42 61 0.0 0.0 0.00 0.00 0.00 57 1022.7
20260502044556 42 61 0.0 0.0 0.00 0.00 0.00 58 1022.8
20260502043556 43 61 0.0 0.0 0.00 0.00 0.00 59 1022.7
20260502042556 43 61 0.0 0.0 0.00 0.00 0.00 56 1022.5
20260502041556 43 61 0.0 0.0 0.00 0.00 0.00 56 1022.6
20260502040556 44 61 0.0 0.0 0.00 0.00 0.00 56 1022.5
20260502035556 44 61 0.0 0.9 0.00 0.00 0.00 53 1022.4
20260502034556 44 61 0.0 0.0 0.00 0.00 0.00 56 1022.4
20260502033556 44 61 0.0 0.0 0.00 0.00 0.00 57 1022.4
20260502032556 44 61 0.0 0.0 0.00 0.00 0.00 56 1022.3
20260502031556 45 61 0.0 0.0 0.00 0.00 0.00 54 1022.3
20260502030556 46 61 0.0 0.0 0.00 0.00 0.00 53 1022.3
20260502025556 46 61 0.0 0.0 0.00 0.00 0.00 50 1022.2
20260502024556 46 61 0.0 0.9 0.00 0.00 0.00 50 1022.1
20260502023556 47 61 0.0 0.9 0.00 0.00 0.00 49 1022.0
20260502022556 47 63 0.0 0.9 0.00 0.00 0.00 48 1022.0
20260502021556 48 63 0.0 0.9 0.00 0.00 0.00 48 1021.9
20260502020555 48 63 0.0 0.9 0.00 0.00 0.00 47 1021.7
20260502015555 49 63 0.0 0.0 0.00 0.00 0.00 46 1021.4
20260502014556 50 63 0.0 0.9 0.00 0.00 0.00 46 1021.4
20260502013556 50 63 0.0 0.9 0.00 0.00 0.00 45 1021.3
20260502012555 51 41 0.0 1.7 0.00 0.00 0.00 44 1021.3
20260502011556 52 43 0.9 0.9 0.00 0.00 0.00 44 1021.2
20260502010555 52 44 0.9 2.6 0.00 0.00 0.00 43 1021.1
20260502005556 53 101 0.0 2.6 0.00 0.00 0.00 41 1021.0
20260502004556 54 336 0.0 5.2 0.00 0.00 0.00 40 1020.9
20260502003555 55 90 0.0 3.5 0.00 0.00 0.00 39 1020.8
20260502002555 56 44 0.9 1.7 0.00 0.00 0.00 39 1020.9
20260502001555 56 95 1.7 1.7 0.00 0.00 0.00 39 1020.8
20260502000555 56 75 0.0 2.6 0.00 0.00 0.00 38 1020.9
20260501235555 57 97 0.9 4.3 0.00 0.00 0.00 36 1020.8
20260501234556 57 24 0.0 2.6 0.00 0.00 0.00 39 1020.8
20260501233555 57 360 0.0 2.6 0.00 0.00 0.00 38 1020.7
20260501232555 57 47 0.9 2.6 0.00 0.00 0.00 38 1020.7
20260501231555 57 97 2.6 3.5 0.00 0.00 0.00 36 1020.7
20260501230555 57 27 2.6 3.5 0.00 0.00 0.00 37 1020.8
20260501225555 58 132 1.7 5.2 0.00 0.00 0.00 37 1020.8
20260501224555 58 171 0.9 3.5 0.00 0.00 0.00 38 1020.8
20260501223555 58 97 0.0 5.2 0.00 0.00 0.00 38 1020.8
20260501222555 58 120 0.9 3.5 0.00 0.00 0.00 36 1020.8
20260501221555 59 111 3.5 6.1 0.00 0.00 0.00 37 1020.8
20260501220555 59 247 2.6 2.6 0.00 0.00 0.00 37 1020.6
20260501215555 60 96 1.7 3.5 0.00 0.00 0.00 37 1020.6
20260501214555 60 127 0.9 5.2 0.00 0.00 0.00 39 1020.6
20260501213555 60 14 1.7 5.2 0.00 0.00 0.00 39 1020.3
20260501212555 60 36 2.6 4.3 0.00 0.00 0.00 37 1020.3
20260501211555 60 248 0.9 4.3 0.00 0.00 0.00 41 1020.4
20260501210555 60 286 3.5 5.2 0.00 0.00 0.00 38 1020.5
20260501205555 60 12 2.6 3.5 0.00 0.00 0.00 38 1020.6
20260501204555 60 287 4.3 4.3 0.00 0.00 0.00 39 1020.8
20260501203555 61 184 0.0 4.3 0.00 0.00 0.00 39 1020.9
20260501202555 61 226 2.6 3.5 0.00 0.00 0.00 39 1020.9
20260501201555 60 95 1.7 5.2 0.00 0.00 0.00 42 1020.9
20260501200555 60 331 0.0 3.5 0.00 0.00 0.00 41 1020.9
20260501195555 60 127 1.7 7.8 0.00 0.00 0.00 43 1020.9
20260501194555 61 198 5.2 7.0 0.00 0.00 0.00 41 1020.8
20260501193555 61 5 0.9 7.0 0.00 0.00 0.00 40 1020.9
20260501192554 61 5 3.5 4.3 0.00 0.00 0.00 44 1020.9
20260501191554 61 18 0.0 5.2 0.00 0.00 0.00 40 1021.1
20260501190555 61 237 1.7 4.3 0.00 0.00 0.00 44 1021.0
20260501185554 60 99 1.7 3.5 0.00 0.00 0.00 45 1021.0
20260501184555 60 76 0.0 7.0 0.00 0.00 0.00 43 1021.1
20260501183555 60 55 0.9 3.5 0.00 0.00 0.00 45 1021.1
20260501182554 60 5 0.9 7.0 0.00 0.00 0.00 46 1021.0
20260501181554 59 68 0.0 5.2 0.00 0.00 0.00 47 1021.1
20260501180554 58 301 0.9 5.2 0.00 0.00 0.00 48 1021.3
20260501175554 58 121 1.7 3.5 0.00 0.00 0.00 51 1021.3
20260501174554 58 174 0.9 3.5 0.00 0.00 0.00 53 1021.5
20260501173554 57 5 0.9 8.7 0.00 0.00 0.00 51 1021.7
20260501172554 57 5 1.7 7.8 0.00 0.00 0.00 53 1021.7
20260501171554 57 324 0.9 7.0 0.00 0.00 0.00 54 1021.7
20260501170554 57 318 1.7 4.3 0.00 0.00 0.00 56 1021.9
20260501165554 56 14 0.0 3.5 0.00 0.00 0.00 56 1021.8
20260501164554 56 17 1.7 3.5 0.00 0.00 0.00 57 1021.9
20260501163554 55 346 1.7 3.5 0.00 0.00 0.00 57 1022.0
20260501162554 55 144 1.7 3.5 0.00 0.00 0.00 56 1021.8
20260501161554 55 342 1.7 7.8 0.00 0.00 0.00 55 1021.7
20260501160554 54 355 0.9 6.1 0.00 0.00 0.00 56 1021.3
20260501155554 54 179 1.7 3.5 0.00 0.00 0.00 57 1021.3
20260501153554 53 132 0.0 5.2 0.00 0.00 0.00 56 1021.0